GFSFLT1_con_lsi_108.txt.gz
Lid_Strength_Index
3 2 2 2 1 1 1 1 1 1 1 1 1 1 0 0 0 0 -0 -0 -0 0 0 0 0 0 1 1 1 1 1 1
3 2 2 2 2 1 2 2 1 1 2 2 2 2 1 1 0 0 0 0 -0 0 0 0 0 1 1 1 1 1 2 1
3 2 2 2 2 2 2 2 2 1 1 1 1 1 1 1 0 0 0 0 0 0 0 1 1 1 1 1 1 2 2 1
3 3 3 2 2 2 2 2 2 1 1 1 1 1 2 2 1 1 0 0 0 0 0 1 1 2 1 1 1 2 3 2
4 4 3 2 2 2 1 1 1 1 1 2 2 3 3 2 2 1 1 0 0 0 0 1 2 2 1 1 1 1 2 4
4 3 3 2 2 2 2 1 1 1 1 1 2 2 2 2 1 1 1 1 0 0 0 1 1 2 1 1 2 2 2 3
4 3 3 3 2 2 2 2 2 1 1 2 2 2 2 2 2 2 2 1 1 0 0 0 1 1 1 2 2 1 1 2
4 4 4 3 3 3 2 2 2 2 2 2 2 2 2 2 2 2 2 2 2 1 1 1 1 1 1 1 1 1 1 2
4 4 4 4 4 3 4 2 2 2 2 2 2 1 2 2 2 2 2 2 1 1 1 0 1 1 1 1 2 1 2 1
5 5 5 6 6 5 4 3 2 2 2 2 2 1 2 2 1 1 1 1 1 1 1 1 1 0 0 1 2 1 1 2
6 7 7 8 7 6 5 2 2 2 2 2 2 2 1 1 1 2 1 1 1 1 1 1 1 1 1 1 2 2 2 2
7 8 9 10 9 9 8 3 2 3 2 2 2 2 2 1 1 1 1 1 1 1 1 1 1 1 1 2 2 2 3 2
8 9 10 12 11 10 10 5 3 2 2 2 2 2 2 2 2 1 1 2 1 1 1 1 1 1 1 1 2 2 2 2
9 9 10 11 12 11 11 9 3 3 3 2 2 2 2 2 2 1 1 1 1 1 1 1 1 1 1 2 2 2 2 2
11 10 10 11 12 12 12 11 8 2 3 2 3 2 2 2 1 2 2 1 1 1 1 1 1 1 1 1 2 2 2 2
12 12 12 11 12 13 13 12 10 8 5 3 3 2 2 2 2 2 2 1 1 1 1 1 1 1 3 1 1 1 2 1
13 13 13 13 12 14 13 13 12 11 10 11 9 5 4 3 3 2 2 2 2 1 1 1 2 8 12 11 5 2 2 1
14 14 14 14 13 13 14 13 13 12 12 12 11 10 10 8 5 4 4 4 2 3 3 8 10 11 13 12 12 2 3 4
14 14 14 15 14 13 13 13 13 14 14 13 13 12 12 12 11 11 11 11 11 10 10 11 13 14 14 12 12 4 8 11

GFSFLT1_con_lsi_111.txt.gz
Lid_Strength_Index
5 5 5 5 5 3 2 1 1 1 1 1 2 2 2 1 1 1 1 0 1 1 1 2 1 1 1 1 1 1 1 1
5 5 5 5 5 3 2 2 2 1 2 2 2 2 2 2 1 1 0 1 1 1 1 1 1 1 1 1 1 1 2 1
6 6 6 5 4 4 2 2 2 1 1 1 2 3 3 3 2 1 0 1 1 1 2 2 1 1 2 1 2 2 2 1
7 6 7 6 5 5 2 2 2 1 1 2 3 3 3 3 4 3 2 1 1 1 2 2 2 2 2 1 2 2 3 2
5 5 5 5 5 3 4 2 2 1 2 2 3 3 4 3 4 3 2 2 1 2 2 3 3 3 2 2 1 1 2 3
5 5 4 4 3 3 3 5 2 2 2 2 2 3 3 4 4 4 3 2 2 1 2 3 3 3 2 2 2 1 1 2
6 6 5 6 6 5 4 3 3 2 2 2 2 3 3 3 4 4 3 2 1 1 2 2 2 2 2 2 1 1 1 2
8 8 7 8 8 7 6 5 4 3 2 2 2 2 2 4 3 3 3 3 2 2 2 2 2 2 2 2 2 2 2 2
9 8 9 9 8 8 8 8 7 5 2 2 2 2 2 3 3 3 2 2 2 2 1 2 2 2 1 2 1 1 2 2
9 9 10 10 10 9 9 9 7 4 2 2 2 2 2 2 2 2 3 2 2 2 1 2 1 2 1 1 1 2 2 2
10 10 10 11 10 10 10 9 7 2 2 2 2 2 2 2 2 2 3 3 2 2 1 2 2 1 1 1 2 1 1 2
10 10 11 11 10 10 11 10 9 3 3 2 2 2 2 3 2 2 2 3 3 2 2 2 2 1 1 1 1 1 2 2
11 11 11 11 11 12 12 12 10 9 4 4 4 3 3 2 2 3 3 3 3 3 2 2 1 1 1 2 2 2 2 3
11 11 11 11 11 12 12 12 11 10 4 3 4 4 3 3 3 3 3 3 3 3 2 1 1 1 2 2 2 2 2 2
12 12 12 12 11 12 12 12 12 11 9 7 5 3 3 2 2 3 3 3 2 2 1 1 1 1 2 2 1 2 2 2
13 13 13 12 12 11 12 12 12 12 11 11 10 9 3 3 3 3 3 3 2 1 1 1 1 1 3 2 2 2 3 2
13 13 13 13 13 12 12 13 13 12 12 12 11 11 10 6 3 3 3 3 3 2 2 2 7 8 12 11 4 2 3 2
14 14 14 13 13 13 13 13 13 13 13 12 12 12 12 12 11 6 6 4 4 5 7 8 10 11 13 12 11 2 2 4
14 14 14 14 13 13 13 13 14 14 14 13 13 13 13 13 13 14 13 13 12 12 12 12 13 13 13 13 11 8 10 11

GFSFLT1_con_lsi_117.txt.gz
Lid_Strength_Index
7 7 7 7 2 2 2 1 1 1 1 2 2 2 1 1 1 1 1 1 1 2 2 3 2 2 2 2 2 2 2 2
7 6 6 8 8 6 2 2 2 1 2 3 2 3 2 2 2 2 1 1 2 2 2 3 2 2 2 2 2 2 2 2
5 4 4 5 4 6 3 2 2 2 1 2 2 2 3 2 3 3 2 2 2 2 2 3 2 1 1 1 2 2 2 2
6 6 7 7 7 6 3 3 2 2 1 1 4 4 4 4 3 3 3 2 2 1 2 2 2 2 2 1 1 2 3 2
8 9 9 9 9 8 7 7 4 2 2 2 3 3 4 2 2 2 2 2 2 2 2 2 2 2 2 1 1 1 2 3
10 10 10 10 10 10 9 9 9 7 5 2 3 3 3 4 3 3 3 3 2 2 2 2 3 2 1 2 2 2 2 2
11 11 11 11 10 10 9 9 10 9 8 7 2 3 3 4 4 3 3 3 3 2 2 2 2 2 3 3 2 1 2 3
12 13 12 11 11 11 9 9 8 8 9 9 8 2 3 3 3 2 3 3 3 2 2 2 2 3 4 4 3 2 2 2
13 12 12 12 12 11 11 10 9 8 8 8 8 7 2 3 2 2 3 3 2 2 2 2 2 3 3 3 3 3 3 2
13 12 12 12 12 11 11 10 10 9 9 8 7 5 3 3 3 3 3 3 2 3 2 3 3 4 3 3 3 2 3 2
13 13 12 12 11 11 11 10 10 10 9 9 7 4 2 1 3 3 3 3 3 3 2 3 4 4 3 3 3 2 2 3
14 13 13 12 11 11 11 11 11 11 11 10 8 7 2 1 2 3 3 3 3 3 3 3 3 3 3 3 3 2 2 2
14 14 13 13 12 12 12 11 11 11 11 11 10 9 7 2 2 3 3 3 3 3 3 2 3 3 3 3 3 2 2 3
14 14 14 13 13 13 12 12 11 12 12 11 11 11 9 8 4 3 3 3 3 3 2 2 3 3 3 3 2 2 2 2
15 15 14 14 13 13 13 12 12 12 12 13 13 12 12 11 8 3 3 3 3 3 2 2 2 2 2 3 2 2 2 2
15 16 15 14 13 12 12 12 12 13 13 13 13 12 11 12 11 10 4 3 3 3 3 2 2 2 2 2 1 2 2 2
15 14 14 14 13 13 13 13 13 13 14 14 13 12 12 12 12 13 13 11 5 3 3 3 3 8 13 9 4 2 2 2
16 15 15 15 14 13 14 14 14 14 14 14 14 13 13 13 13 13 14 15 14 13 11 10 12 13 14 12 10 2 2 2
17 16 15 15 14 13 13 14 15 15 16 15 14 14 14 13 13 13 13 14 15 16 15 14 13 14 14 12 13 6 9 10

GFSFLT1_con_lsi_120.txt.gz
Lid_Strength_Index
7 8 8 3 2 2 2 1 1 1 1 1 1 1 1 1 0 0 1 0 1 1 2 2 2 2 2 2 2 2 2 2
7 5 5 8 7 11 3 2 2 1 1 2 2 2 1 1 1 0 0 0 1 1 1 2 2 2 2 2 2 2 3 2
5 6 7 7 7 6 5 3 2 2 1 2 2 1 1 1 0 1 1 1 1 1 2 3 2 2 2 2 2 2 2 2
6 8 8 9 9 9 7 5 2 2 1 1 3 3 4 3 3 2 1 1 2 1 2 2 2 1 2 2 1 2 3 2
9 10 9 10 10 9 8 6 6 4 2 2 2 3 3 2 2 2 2 2 2 2 2 3 1 1 1 1 1 1 1 3
11 11 11 10 10 11 9 6 7 7 7 3 3 3 3 4 3 3 2 2 3 2 3 3 2 1 1 2 1 1 1 2
11 10 10 11 10 10 10 10 9 8 7 7 5 3 4 4 4 3 3 3 3 3 3 2 2 2 1 2 2 1 1 2
11 11 11 11 11 11 10 11 10 10 9 8 7 7 5 4 4 3 3 3 3 2 2 2 2 2 1 1 2 2 2 2
12 12 11 12 11 11 11 10 10 10 9 10 9 8 6 4 2 3 3 3 2 1 1 1 2 2 2 2 2 2 2 2
13 12 12 12 12 11 11 11 11 10 9 8 8 8 7 6 4 3 2 3 2 1 1 1 2 2 3 3 2 3 3 2
13 13 13 12 12 12 12 11 11 11 10 9 8 8 7 7 5 2 3 3 2 1 1 2 2 2 3 3 3 3 3 3
14 14 13 13 12 12 12 12 12 12 11 10 10 9 9 7 2 1 2 3 3 3 2 2 2 3 3 3 3 4 4 4
15 14 14 13 13 13 13 13 12 12 11 11 11 11 10 9 9 6 2 3 3 3 3 2 2 2 3 3 4 4 4 4
15 15 15 14 14 14 13 13 13 12 12 12 12 12 12 12 10 9 4 3 2 2 2 2 3 2 3 3 4 4 4 4
15 16 15 15 14 14 14 14 13 12 12 13 13 13 12 12 12 12 11 8 2 3 2 2 2 2 2 3 3 4 4 3
16 16 16 15 15 15 14 14 14 13 13 13 13 12 12 13 12 12 12 13 11 10 2 2 2 2 2 2 3 3 3 3
17 17 16 16 16 15 15 14 14 14 14 14 13 13 13 13 13 13 12 13 13 13 12 10 6 10 13 10 5 3 2 2
17 17 17 16 15 14 14 15 14 15 15 15 14 13 13 13 13 13 13 13 13 14 14 14 14 13 14 11 11 2 2 2
18 17 17 16 15 14 13 15 16 16 16 16 16 15 15 14 13 14 14 14 14 14 14 15 14 14 14 13 12 6 8 11

GFSFLT1_con_lsi_123.txt.gz
Lid_Strength_Index
4 3 3 4 1 1 1 1 1 0 0 0 0 0 -0 -0 -0 -0 -1 0 0 1 -0 0 -0 1 1 1 1 1 1 1
3 2 2 4 3 2 1 2 1 1 1 1 1 2 1 0 -0 -0 -1 -1 0 -0 -0 0 0 0 1 1 1 2 2 1
5 3 3 4 5 5 6 3 1 1 1 1 1 1 1 0 0 -0 -0 -0 -1 -0 -0 0 0 1 1 1 1 2 1 1
8 6 5 5 6 6 5 4 5 1 1 1 1 1 1 1 1 1 0 -0 -0 -0 -0 0 0 0 1 1 1 1 2 1
7 7 7 7 7 6 5 3 1 3 1 1 2 2 3 2 1 1 1 -0 -0 -0 -0 0 0 0 1 1 0 1 1 3
9 8 8 8 8 7 6 3 3 3 3 3 2 2 2 1 1 1 1 1 0 -0 -0 1 0 0 1 1 1 1 1 1
9 9 9 9 9 8 7 7 6 5 6 6 6 2 2 2 2 2 1 1 1 1 1 1 1 1 0 1 0 0 1 1
10 10 10 10 10 10 9 9 9 8 8 8 8 8 7 4 2 2 2 2 2 2 1 1 1 1 1 1 1 1 1 1
11 11 11 11 11 11 11 11 10 9 10 10 9 8 7 6 5 2 2 1 1 1 1 1 1 1 1 1 1 1 1 1
12 11 11 11 11 11 11 11 11 10 10 9 9 8 8 8 6 5 2 1 1 0 0 1 0 0 0 1 1 2 2 1
14 13 12 12 11 11 11 11 12 11 10 9 9 9 9 8 7 5 3 1 1 1 1 0 0 0 1 1 2 2 2 1
15 14 13 13 12 12 12 12 12 12 11 11 10 10 9 8 8 7 6 1 1 1 1 1 1 1 1 2 2 2 2 2
15 15 15 14 14 13 13 13 13 12 12 11 11 11 10 10 10 9 9 8 1 1 2 2 1 1 1 2 2 2 3 3
15 15 15 15 15 14 14 13 13 12 12 12 12 12 12 12 12 11 11 10 9 3 1 2 2 2 2 2 2 2 2 3
16 16 16 15 15 15 15 15 14 13 12 12 12 12 12 12 12 12 11 11 11 11 10 3 1 1 2 2 2 2 2 2
17 17 17 16 16 14 15 15 14 13 13 13 13 13 12 12 12 13 12 12 12 11 12 12 12 10 13 12 3 3 3 3
17 17 17 17 16 15 16 15 15 14 14 14 13 13 13 13 12 13 13 13 14 14 13 13 13 13 14 14 12 3 3 3
17 17 17 17 16 15 15 16 15 15 15 15 14 13 14 13 13 13 12 13 13 14 15 14 14 16 14 14 13 7 3 3
18 18 18 17 16 15 14 14 15 15 16 16 15 15 15 14 14 14 13 13 13 14 15 15 15 15 15 14 14 13 13 14

GFSFLT1_con_lsi_126.txt.gz
Lid_Strength_Index
6 5 4 2 1 1 1 0 0 0 0 -0 -0 -0 -0 -0 -0 -0 -1 -1 -1 -0 -0 -0 -0 0 0 0 1 0 0 0
5 5 3 1 1 1 1 0 0 1 1 1 1 1 1 0 -0 -1 -1 -1 -1 -0 -0 -0 -0 0 0 0 1 1 1 0
5 4 3 2 2 1 1 1 0 1 1 1 1 1 0 0 -0 -0 -1 -1 -1 -0 -0 0 0 0 1 0 1 2 1 1
6 5 4 3 3 2 1 1 1 1 1 1 0 0 0 1 1 0 -0 -1 -1 -0 -0 -0 -0 -0 1 1 1 1 3 1
6 6 6 6 5 3 1 1 1 1 1 1 2 2 3 1 1 0 0 -0 -0 -1 -1 -0 -0 0 0 1 0 1 1 3
8 7 6 6 6 6 4 2 1 2 2 3 2 2 1 1 1 1 1 0 -0 -0 -0 -0 0 0 0 0 1 1 1 1
9 8 7 7 7 7 7 5 5 4 4 5 4 2 2 2 2 2 1 1 1 0 0 0 0 0 1 0 0 1 1 1
10 10 9 8 8 9 8 8 8 6 6 7 7 6 4 4 3 2 2 2 1 1 1 1 0 0 0 0 0 1 1 1
12 10 10 9 9 9 10 10 9 9 7 7 7 6 6 6 6 5 4 2 1 0 1 1 0 0 0 0 0 0 0 1
13 12 12 11 10 11 11 10 11 10 9 8 8 8 6 6 5 4 4 3 2 1 0 1 2 0 1 0 1 1 1 1
14 14 13 13 12 10 11 11 10 11 10 9 9 8 8 7 6 6 7 6 4 2 1 1 1 1 1 1 1 1 1 1
15 15 14 13 13 12 11 11 11 11 10 10 10 9 8 8 8 8 8 7 5 3 1 1 1 1 1 1 1 1 1 1
15 15 15 15 14 14 13 12 12 11 11 11 11 11 10 10 10 10 9 9 9 8 6 1 1 1 1 1 1 1 1 2
15 16 16 16 15 15 14 13 12 12 11 11 12 12 12 12 11 11 11 11 11 10 10 10 8 2 2 1 1 1 1 1
15 15 15 15 15 15 15 14 13 12 12 11 12 12 12 12 11 12 12 12 13 13 12 12 12 13 13 12 10 3 2 2
15 16 16 15 15 14 15 15 14 13 13 12 12 11 12 11 12 11 11 12 13 14 13 14 14 14 14 14 12 9 4 2
16 16 16 16 16 15 14 14 14 13 13 13 12 11 10 11 11 11 12 11 13 12 14 14 15 15 15 14 13 8 6 3
17 17 17 16 15 14 14 13 13 13 14 14 13 11 11 10 10 11 11 12 12 13 13 13 15 15 14 14 14 12 13 13
16 17 17 16 15 14 14 13 13 14 14 15 14 13 12 12 12 12 12 12 12 12 13 13 13 14 15 15 15 13 14 14

GFSFLT1_con_lsi_129.txt.gz
Lid_Strength_Index
4 3 3 3 3 1 0 0 0 -0 0 0 0 0 0 -0 -0 -0 -1 -0 -0 -0 -0 -0 -0 0 0 0 1 0 1 1
5 4 3 3 2 1 1 1 0 0 1 2 1 2 1 1 -0 -0 -1 -0 -0 0 0 0 0 1 1 0 1 1 1 0
7 6 5 4 3 2 2 1 1 1 1 1 1 1 1 0 0 -0 -0 -0 -0 0 0 0 0 1 1 1 1 2 1 1
7 7 7 6 5 5 4 2 1 1 1 1 1 1 1 1 1 1 0 -0 -0 -0 0 -0 0 0 1 1 1 1 2 1
9 8 7 6 6 6 6 4 1 1 1 2 2 2 2 1 1 0 0 -0 -0 -0 -0 -0 0 0 1 1 1 1 1 3
10 9 9 7 5 6 6 5 3 1 4 4 2 2 1 1 1 1 1 0 -0 0 0 -0 0 0 0 0 1 1 1 2
10 9 9 9 7 7 6 6 5 3 4 6 3 2 2 3 2 2 2 1 1 0 0 0 0 0 0 0 0 1 1 1
11 11 11 10 9 8 7 8 8 6 5 8 7 5 4 3 4 4 2 2 1 1 0 1 1 0 0 0 1 1 1 1
11 11 12 11 11 9 9 8 9 8 6 8 8 7 6 5 4 2 4 3 2 0 1 0 0 1 1 1 1 1 1 1
13 11 13 13 12 11 10 9 9 9 9 7 9 8 7 6 5 6 6 5 5 3 1 1 0 0 1 1 1 1 1 1
13 13 14 13 13 12 11 10 10 10 9 10 10 10 9 9 9 9 7 6 6 4 3 1 0 0 1 1 1 1 1 1
14 14 14 14 14 13 13 12 11 10 10 9 9 10 9 9 10 9 8 8 7 7 6 6 1 1 1 1 1 1 2 1
14 14 14 15 14 14 14 12 12 11 10 11 11 10 10 10 10 10 10 10 9 9 10 10 11 11 11 10 3 1 2 2
14 14 15 15 15 15 14 14 12 12 10 9 10 10 11 10 10 10 10 11 11 11 12 12 13 13 13 13 12 10 3 2
15 15 15 15 15 15 15 14 13 13 12 11 10 10 10 10 10 10 11 11 12 12 12 13 13 14 14 13 12 11 9 6
15 16 15 15 15 15 14 13 13 13 13 13 12 11 11 11 11 11 11 12 12 13 13 14 14 15 15 15 12 9 9 8
16 16 16 15 15 14 14 14 14 14 14 13 12 12 11 11 11 11 11 12 12 12 13 13 14 15 15 14 13 12 13 14
15 16 16 15 14 14 14 13 13 14 14 13 13 12 12 11 11 11 11 11 11 12 13 12 14 14 14 14 13 13 14 15
15 15 15 13 13 13 13 13 13 14 14 14 13 13 13 12 12 12 12 12 12 13 13 13 13 14 14 14 13 13 14 15

GFSFLT1_con_lsi_132.txt.gz
Lid_Strength_Index
6 6 6 5 5 4 3 2 1 1 1 2 0 1 0 0 0 0 0 -0 0 0 0 0 0 1 1 1 1 1 1 2
7 7 7 7 6 6 4 3 3 3 2 2 3 2 1 1 0 0 0 0 0 0 0 0 0 1 1 1 1 2 2 1
9 8 8 8 8 7 6 6 4 4 2 1 2 2 1 1 0 0 0 0 0 0 0 1 1 1 1 1 1 2 2 1
9 9 9 9 8 7 7 7 6 5 4 1 2 3 1 2 1 1 1 0 0 0 0 1 1 1 1 1 1 2 3 2
10 11 11 11 9 8 7 6 6 5 4 3 2 6 5 2 2 1 1 0 0 0 0 0 1 1 1 1 1 1 2 3
11 11 11 11 10 10 8 7 5 5 4 3 3 4 2 2 1 2 1 1 0 0 0 0 1 1 1 1 1 1 1 2
12 11 11 11 10 10 9 8 5 5 5 3 3 3 3 2 3 2 2 1 1 1 0 1 0 1 1 1 1 1 1 1
13 13 12 12 11 11 10 9 7 6 6 3 4 4 4 4 4 3 5 5 3 2 1 1 1 1 1 1 1 1 1 1
13 13 13 12 12 12 11 11 8 7 7 6 5 5 6 7 7 6 5 5 3 2 4 1 1 1 1 1 1 1 1 1
14 13 13 13 12 13 12 12 12 8 7 7 7 8 9 9 9 8 8 7 6 5 6 6 3 1 1 2 2 2 1 1
14 14 13 13 13 12 13 13 14 9 9 8 8 10 10 10 10 10 10 10 9 9 9 9 9 8 4 1 1 1 1 1
14 14 13 13 14 13 13 14 14 13 10 9 10 10 11 11 11 12 11 11 11 11 11 11 11 12 12 10 9 3 2 2
15 14 14 14 14 14 14 14 14 14 10 10 10 11 11 11 11 11 11 11 11 12 12 12 12 13 13 13 12 10 8 7
15 15 15 14 14 14 14 14 14 13 11 11 10 11 11 11 11 12 12 12 12 12 13 13 13 14 14 13 11 10 9 7
15 15 15 15 14 14 14 15 14 13 13 12 12 12 11 11 11 12 12 12 12 12 13 13 13 13 13 12 11 12 12 12
15 15 15 14 14 14 14 14 14 14 14 14 13 12 12 11 12 12 12 12 13 13 12 14 14 14 14 13 12 12 13 13
15 16 15 14 14 14 14 14 14 14 14 14 13 13 13 13 13 13 13 13 13 14 14 14 15 15 14 14 13 13 14 14
15 16 15 14 13 13 14 14 14 15 15 15 14 14 14 14 13 14 14 14 14 14 15 15 15 16 15 14 13 13 14 15
14 14 14 13 12 12 13 13 13 14 14 14 14 14 14 13 13 13 13 13 13 14 14 14 15 15 14 14 14 13 13 14